Location: Eyeline Observatory
(43.2182°N, 78.8632°W)
Time: 02:48:25
(UTC-04:00)

Vanguard 2 - Pass Details

Date: 26 January 2018
Orbit: 552 x 2940 km, 32.9° (Epoch: 22 May)

Event Time Altitude Azimuth Distance (km) Brightness Sun altitude
Rises 09:38:11 0° 264° (W) 5,651 11.6 16.9°
Reaches altitude 10° 09:45:04 10° 240° (WSW) 5,143 11.7 17.7°
Maximum altitude 09:50:36 13° 219° (SW) 5,197 12.0 18.4°
Drops below altitude 10° 09:56:37 10° 197° (SSW) 5,655 12.5 19.1°
Sets 10:05:26 0° 175° (S) 6,780 13.4 20.0°
